Regional Weather Roundup
Issued by NWS

Home | Current Version | Previous Version | Graphics & Text | Print | Product List | Glossary On
Versions: 1 2 3 4 5 6 7 8 9 10 11 12 13 14 15 16 17 18 19 20 21 22 23 24 25 26 27 28 29 30 31 32 33 34 35 36 37 38 39 40 41 42 43 44 45 46 47 48 49 50
000
ASUS43 KLOT 261109
RWRIL

ILLINOIS REGIONAL WEATHER ROUNDUP
NATIONAL WEATHER SERVICE CHICAGO/ROMEOVILLE IL
600 AM CDT MON SEP 26 2016

NOTE: "FAIR" INDICATES FEW OR NO CLOUDS BELOW 12,000 FEET WITH NO
SIGNIFICANT WEATHER AND/OR OBSTRUCTIONS TO VISIBILITY.

* THESE STATIONS ARE NOT UNDER NWS QUALITY CONTROL. THEY ALSO MAY NOT
  REPORT WEATHER SUCH AS PRECIPITATION OR FOG.

ILZ001-002-007-009-015-016-024-261200-
NORTHWEST ILLINOIS

CITY           SKY/WX    TMP DP  RH WIND       PRES   REMARKS
MOLINE         CLEAR     54  46  74 W8        30.07R
STERLING*      MOCLDY    54  50  86 W10       30.04R
SAVANNA*       CLEAR     56  47  72 W12       30.02F
$$

ILZ003-004-008-010-011-017-018-261200-
NORTH CENTRAL ILLINOIS

CITY           SKY/WX    TMP DP  RH WIND       PRES   REMARKS
ROCKFORD       CLOUDY    56  49  77 W8        30.02R
FREEPORT*      CLEAR     52  48  86 SW9       30.02S
ROCHELLE*      CLOUDY    56  51  84 W10       30.03R
DE KALB*       CLOUDY    57  51  79 W8        30.01R
$$

ILZ005-006-012>014-019>023-261200-
NORTHEAST ILLINOIS

CITY           SKY/WX    TMP DP  RH WIND       PRES   REMARKS
CHICAGO-OHARE  CLOUDY    60  49  66 W10       29.98R
CHICAGO-MIDWAY CLOUDY    61  49  64 W7        29.99R
AURORA         CLOUDY    59  51  75 W8        30.01R
LANSING*       CLOUDY    59  55  85 W6        30.00R
JOLIET*        CLOUDY    61  53  74 W6        30.02R
WAUKEGAN       CLOUDY    58  50  75 W5        29.94S
DUPAGE AIRPORT CLOUDY    59  49  69 W10       29.99R
KANKAKEE*      CLOUDY    58  55  88 W5        30.03S
WHEELING       CLOUDY    60  49  66 W9        29.98S
MORRIS*        CLOUDY    59  51  76 W5        30.02R
ROMEOVILLE*    CLOUDY    58  54  84 W7        30.01R
NORTHERLY ISL    N/A     62  48  60 NW10        N/A
$$

LMZ740>746-261200-
SOUTHERN LAKE MICHIGAN

STATION/POSITION SKY/WX   TEMP    WIND        PRES    VSBY  WAVE
                          AIR SEA DIR/SP/G                  HT/PER
                          (F)     (DEG/KT/KT) (MB)    (MI)  (FT/S)
SOUTHERN BUOY              63 71  290/ 19/ 25 1012.7R         5/ 5
WILMETTE HARBOR            61 64  300/ 12/ 16   N/A           2/ 3
HARRISON CRIB              63     300/ 14/ 17   N/A
BURNHAM HARBOR             62     250/  7/ 14   N/A
CALUMET HARBOR             61     280/  4/ 13 1014.4R
BURNS HARBOR               62     260/ 16/ 21 1015.2S
MICHIGAN CITY              62     260/ 23/ 26   N/A
MICHIGAN CITY 6N           63 67  290/ 16/ 21   N/A           4/ 5
ST. JOSEPH                 64 67  290/ 17/ 23 1014.1R         5/ 5
$$

ILZ025>027-034>036-040-047-049-050-058-095>099-261200-
WEST-CENTRAL ILLINOIS

CITY           SKY/WX    TMP DP  RH WIND       PRES   REMARKS
QUINCY         CLOUDY    56  50  80 NW7       30.14R
GALESBURG*     PTCLDY    53  48  84 W7        30.09S
MACOMB*        CLOUDY    55  50  85 W6        30.13R
JACKSONVILLE*  CLOUDY    58  55  90 W5        30.12R
PITTSFIELD*    CLOUDY    59  55  85 W5        30.14R
$$

ILZ028>032-037-038-041>044-048-051>054-059>061-261200-
CENTRAL ILLINOIS

CITY           SKY/WX    TMP DP  RH WIND       PRES   REMARKS
PONTIAC        CLOUDY    59  56  89 W7        30.06R
BLOOMINGTON    CLOUDY    58  53  84 W9        30.09R
DECATUR        CLOUDY    60  54  80 NW12      30.09R
PEORIA         CLOUDY    59  51  75 W8        30.09R
LACON*         CLOUDY    59  49  70 W7        30.06R
LINCOLN*       CLOUDY    59  55  88 W5        30.09R
SPRINGFIELD    CLOUDY    59  55  87 W8        30.11R
TAYLORVILLE    CLOUDY    58  56  91 W6        30.11R
$$

ILZ033-039-045-046-055>057-062-063-261200-
EAST-CENTRAL ILLINOIS

CITY           SKY/WX    TMP DP  RH WIND       PRES   REMARKS
CHAMPAIGN      CLOUDY    58  56  93 W5        30.07R
RANTOUL*       CLOUDY    60  58  93 W7        30.06S
MATTOON        CLOUDY    58  55  90 W8        30.08R
PARIS*         LGT RAIN  58  57  97 CALM      30.07S
$$

ILZ079-100>102-261200-
SOUTHWEST ILLINOIS

CITY           SKY/WX    TMP DP  RH WIND       PRES   REMARKS
ALTON          CLOUDY    58  56  94 W6        30.13R
BELLEVILLE     CLOUDY    60  59  99 W1        30.11R
CAHOKIA*       CLOUDY    61  57  87 W3        30.14R
SPARTA*        LGT RAIN  58  56  95 W3        30.16R
$$

ILZ064>066-069>071-074>076-080>082-084>086-088>090-092>094-261200-
SOUTH-CENTRAL ILLINOIS

CITY           SKY/WX    TMP DP  RH WIND       PRES   REMARKS
CARBONDALE     CLOUDY    60  57  89 NW9       30.12R
CAIRO*         MOCLDY    61  59  94 N6        30.11R
EFFINGHAM*     LGT RAIN  58  58 100 W6        30.11R
MARION         CLOUDY    63  57  82 NW6       30.12R
MT. VERNON     CLOUDY    59  50  72 N5        30.12R
CENTRALIA*     RAIN      59  58  97 NW5       30.11S
SALEM*         RAIN      59  57  92 NW3       30.12S
METROPOLIS*    CLOUDY    63  61  93 CALM      30.10R
$$

ILZ067-068-072-073-078-083-087-091-261200-
SOUTHEAST ILLINOIS

CITY           SKY/WX    TMP DP  RH WIND       PRES   REMARKS
LAWRENCEVILLE  CLOUDY    61  58  90 NW7       30.08R
FLORA*         HVY RAIN  60  58  93 NW8       30.11R
FAIRFIELD*       N/A     60  56  88 NW3       30.10R
HARRISBURG*    LGT RAIN  62  60  95 NW5       30.10R
ROBINSON*      LGT RAIN  59  57  92 NW10      30.09R
CARMI*         CLOUDY    60  60  97 NW6       30.08R
$$

ABBREVIATIONS USED IN REMARKS
   TC - TEMPERATURE IN CELSIUS
  WCI - WIND CHILL INDEX
   HX - HEAT INDEX
  VSB - VISIBILITY
$$





USA.gov is the U.S. government's official web portal to all federal, state and local government web resources and services.